Temperature
8 8 8 8 8 8 8 8 7 7 7 7 7 7 7 7 7 7 7 7 7 7 7 7 7 6 6 6 6 6 6 6 6 5 5 5 5 5
8 8 8 8 8 7 7 7 7 7 7 7 7 7 7 7 7 7 7 7 7 7 7 6 6 6 6 6 5 5 5 5 5 5 5 5 5 4
7 7 7 7 7 7 7 7 7 7 7 7 7 7 7 7 7 7 6 6 6 6 6 6 6 6 5 5 5 5 5 5 5 5 4 4 4 4
7 7 7 7 7 7 7 7 7 7 6 6 6 6 6 6 6 6 6 6 6 6 6 5 5 5 5 5 5 5 4 4 4 4 4 4 4 4
7 7 7 7 7 7 6 6 6 6 6 6 6 6 6 6 6 6 6 6 5 5 5 5 5 5 5 4 4 4 4 4 4 3 3 3 3 3
6 6 6 6 6 6 6 6 6 6 5 5 5 5 5 5 5 5 5 5 5 5 5 5 4 4 4 4 4 4 4 3 3 3 3 3 3 3
6 6 6 6 6 6 5 5 5 5 5 5 5 5 5 5 5 4 4 4 4 4 4 4 4 4 4 4 3 3 3 3 3 3 3 2 2 2
5 5 5 5 5 5 5 5 5 5 4 4 4 4 4 4 4 4 3 3 4 4 4 4 3 3 3 3 3 3 2 2 2 2 2 2 2 2
5 5 5 5 5 5 5 4 4 4 4 4 4 4 4 4 4 3 3 3 3 3 3 3 3 3 3 3 2 2 2 2 2 1 1 1 1 1
4 4 4 4 4 4 4 4 4 4 4 3 3 3 3 3 3 3 2 2 2 2 2 2 2 2 2 2 2 2 1 1 1 1 1 1 0 0
3 3 4 4 4 4 3 3 3 3 3 3 3 3 3 2 2 2 2 2 2 2 1 1 1 1 1 2 1 1 1 1 1 1 0 -0 -0 -0
3 3 3 3 3 3 3 3 3 3 2 2 2 2 2 2 2 1 1 1 1 1 1 1 1 0 0 1 1 0 0 0 0 -0 -0 -1 -1 -1
2 2 2 2 2 2 2 2 2 2 2 2 2 2 2 1 1 1 1 0 0 0 0 -0 -0 -1 -1 -1 -0 -0 -0 -0 -1 -1 -1 -1 -1 -2
1 1 1 1 1 1 1 1 1 1 1 1 1 1 1 1 1 0 0 -0 -0 -1 -1 -1 -1 -1 -2 -2 -1 -1 -1 -1 -1 -2 -2 -2 -2 -2
0 1 1 1 1 0 1 0 0 0 0 0 0 0 0 -0 -0 -1 -1 -1 -1 -1 -1 -1 -2 -2 -2 -2 -2 -2 -2 -2 -2 -2 -3 -3 -3 -3
-0 -0 -0 -0 -0 -0 -0 -0 -0 -0 -0 -0 -1 -1 -1 -1 -1 -1 -1 -2 -2 -2 -2 -2 -2 -2 -2 -3 -3 -3 -3 -3 -3 -3 -3 -3 -3 -4
-1 -1 -1 -1 -1 -1 -1 -1 -1 -1 -1 -1 -1 -2 -2 -2 -2 -2 -2 -2 -2 -2 -2 -3 -3 -3 -3 -3 -3 -3 -3 -3 -4 -4 -4 -4 -4 -4
-2 -2 -2 -2 -2 -2 -2 -2 -2 -2 -2 -2 -2 -2 -2 -2 -2 -3 -3 -3 -3 -3 -3 -3 -4 -4 -4 -4 -4 -4 -4 -4 -4 -4 -5 -5 -4 -4
-3 -3 -3 -2 -2 -2 -2 -2 -2 -2 -2 -2 -2 -3 -3 -3 -3 -3 -3 -3 -4 -4 -4 -4 -4 -5 -5 -5 -4 -4 -5 -5 -5 -5 -5 -5 -5 -5
-3 -3 -3 -3 -3 -3 -3 -3 -3 -3 -3 -3 -3 -3 -3 -4 -4 -4 -4 -4 -4 -4 -4 -5 -5 -5 -6 -6 -5 -5 -5 -5 -5 -5 -5 -5 -5 -5
-4 -4 -4 -4 -4 -4 -4 -4 -4 -4 -4 -4 -4 -4 -4 -4 -4 -4 -5 -5 -5 -5 -5 -5 -5 -6 -6 -6 -6 -5 -5 -5 -6 -6 -6 -6 -6 -6
-4 -4 -4 -4 -4 -4 -4 -4 -4 -4 -4 -4 -4 -4 -5 -5 -5 -5 -5 -5 -5 -5 -6 -6 -6 -6 -6 -6 -6 -6 -6 -5 -6 -6 -6 -7 -7 -7
-5 -5 -5 -5 -5 -5 -5 -5 -5 -5 -5 -5 -5 -5 -5 -5 -5 -5 -6 -6 -6 -6 -6 -6 -6 -6 -6 -7 -7 -7 -6 -6 -6 -6 -6 -6 -7 -7
Wind_Speed
5 4 3 2 2 2 3 4 4 3 3 3 2 2 3 3 3 3 4 4 5 5 5 5 4 4 4 5 5 6 6 7 7 7 8 8 9 10
4 5 3 2 2 2 3 2 2 3 3 2 2 1 3 3 3 3 4 5 6 6 6 6 6 5 6 6 6 7 7 7 7 8 8 9 10 10
5 5 5 4 3 3 3 2 2 2 3 2 1 1 1 2 2 3 5 5 5 6 6 7 7 6 7 7 7 7 8 8 8 8 9 10 10 11
6 6 6 5 4 3 3 3 3 2 3 3 2 1 2 2 2 2 3 4 5 6 6 7 7 7 7 7 7 7 8 8 9 9 10 10 11 12
7 7 6 6 5 4 4 4 3 2 2 2 2 1 1 1 1 1 2 3 4 6 6 7 7 7 7 7 7 7 8 8 9 9 10 11 11 12
6 6 6 7 7 6 5 5 4 3 3 2 2 2 2 1 1 1 2 2 3 4 6 6 6 7 7 7 7 8 8 8 9 10 10 11 11 12
5 5 5 6 7 6 5 5 5 4 3 3 3 2 2 2 2 2 3 2 3 2 2 4 5 5 6 7 8 8 8 8 8 9 10 10 11 11
5 4 4 5 6 6 6 6 7 6 5 4 4 4 4 3 2 2 2 2 3 2 1 3 3 3 5 6 7 7 7 7 8 9 9 10 10 11
5 5 4 4 5 4 5 5 5 6 7 5 5 5 4 4 4 3 3 3 4 2 1 4 2 3 5 6 6 6 7 8 9 9 9 10 10 11
4 5 5 5 4 4 4 3 2 3 4 4 4 4 3 2 3 4 3 2 2 2 1 3 3 3 4 6 7 7 7 7 8 8 9 10 11 11
3 4 5 5 6 6 5 4 3 1 2 4 4 4 4 4 3 1 1 1 3 3 1 2 2 2 3 3 5 6 7 8 8 9 10 11 11 12
3 4 5 5 6 6 5 5 4 3 2 1 1 1 2 3 3 3 3 3 2 3 1 1 2 1 3 3 3 5 6 8 9 10 11 12 12 10
3 3 3 6 6 7 6 5 5 4 3 3 2 1 1 1 1 1 2 2 3 3 2 1 2 1 2 3 3 3 5 5 7 9 11 12 12 10
3 3 3 6 6 6 5 5 6 4 3 3 2 2 1 1 1 0 0 1 2 4 4 3 2 3 3 4 4 3 3 6 6 7 8 10 11 12
2 4 4 5 5 4 5 5 5 3 3 3 3 2 1 1 1 0 1 1 1 2 3 3 3 3 3 4 4 4 4 4 5 4 5 6 7 8
2 3 4 4 3 3 4 3 3 3 3 3 2 1 1 1 1 0 1 1 1 2 2 3 3 3 4 5 5 6 5 4 3 4 5 6 8 9
2 2 2 2 2 2 2 2 2 2 2 2 2 2 1 1 1 1 1 1 2 3 3 2 3 3 5 5 5 6 5 5 5 4 5 6 6 8
3 3 3 3 4 4 3 3 2 3 2 2 3 2 2 2 1 1 1 2 3 3 3 2 2 3 3 4 7 6 5 5 5 4 4 6 8 7
2 3 3 3 3 3 3 3 2 2 2 3 3 2 2 2 2 2 2 2 3 3 3 2 2 2 4 6 4 6 5 5 5 5 5 6 8 8
2 2 2 3 3 3 3 2 2 2 2 2 2 2 3 2 2 2 3 3 3 3 3 3 3 3 5 5 5 5 8 6 5 6 6 6 7 11
1 1 2 2 2 2 2 2 2 2 2 2 2 2 2 2 3 3 3 5 4 4 4 4 4 5 3 3 4 5 5 8 8 6 6 6 7 7
1 1 1 1 2 2 2 2 2 2 2 2 2 2 2 3 4 4 4 4 4 4 5 4 3 2 2 4 6 7 7 7 9 11 11 10 6 6
0 1 1 1 1 1 1 2 2 2 2 2 2 2 3 3 3 3 4 4 4 4 4 4 3 3 4 5 6 6 7 7 6 6 7 10 13 15
Wind_Direction
178 177 171 175 170 166 157 160 165 196 239 230 207 192 177 186 203 216 225 231 243 252 255 258 253 256 262 271 278 284 288 293 296 294 294 297 300 304
178 177 178 174 170 169 170 180 174 180 214 224 210 193 181 194 215 220 234 239 242 247 245 243 248 255 260 266 273 278 283 286 290 293 295 297 297 300
178 182 187 175 173 177 171 173 185 177 210 251 246 186 188 202 225 238 241 240 244 241 242 246 251 257 259 264 270 273 278 284 287 290 291 293 295 297
188 187 190 181 179 179 179 187 190 185 194 223 237 222 222 215 214 234 247 245 244 245 249 254 256 259 261 265 268 271 277 282 284 287 289 290 291 293
190 190 188 180 189 189 187 191 191 190 186 197 228 230 239 229 235 273 265 260 259 254 259 257 258 262 265 267 267 272 278 280 284 286 288 289 290 292
194 191 189 189 193 189 192 193 188 182 181 190 214 226 226 229 191 236 274 270 267 261 261 260 265 268 268 266 268 271 274 277 282 285 287 289 291 293
191 191 192 192 196 194 196 192 186 187 190 198 216 224 224 207 219 213 242 272 272 249 263 262 258 262 267 266 265 268 270 278 286 288 290 292 295 296
189 189 188 189 194 197 201 196 192 192 197 203 215 214 225 222 215 214 226 248 270 259 242 273 249 261 268 264 267 268 269 279 288 292 294 296 297 298
190 188 191 191 190 187 188 189 199 209 204 203 211 219 224 210 195 215 227 235 248 239 236 270 266 267 273 273 277 273 274 280 287 291 293 295 297 298
193 190 188 187 188 177 171 174 195 212 210 203 202 211 217 200 195 207 219 254 279 270 199 256 269 268 284 281 272 272 282 286 290 294 296 297 299 299
193 188 184 185 185 171 166 175 184 215 218 201 199 193 193 197 189 158 189 224 263 260 215 239 273 283 284 278 273 273 287 295 297 299 299 301 303 302
193 190 191 186 182 177 178 179 190 201 167 141 153 160 168 180 185 185 194 213 244 256 228 210 253 289 291 282 282 285 287 290 295 298 300 301 303 303
197 191 190 186 185 187 187 189 196 185 171 166 167 160 125 128 142 175 193 207 223 242 221 188 233 248 251 281 289 280 281 289 297 300 300 300 301 300
201 193 186 183 188 190 191 185 176 167 161 162 168 184 188 198 229 160 175 246 242 240 234 216 222 236 255 274 280 286 291 293 291 293 298 304 303 300
194 185 182 182 182 184 184 174 165 165 166 175 188 199 204 203 160 104 48 24 327 282 257 248 235 244 250 258 269 279 291 289 283 286 295 296 293 295
164 166 164 169 172 173 168 166 168 173 175 183 184 181 161 162 186 202 240 281 305 303 305 286 259 242 259 263 265 276 275 274 285 288 290 288 290 287
153 140 149 160 161 161 162 156 154 154 168 175 173 177 185 202 228 206 230 255 260 273 287 299 302 283 268 262 266 266 270 274 276 284 291 292 285 283
156 170 182 182 184 184 182 181 179 181 181 177 181 189 198 206 223 241 250 249 258 266 270 269 289 305 296 275 245 255 264 270 277 282 282 289 290 287
159 172 183 186 186 184 184 183 190 183 171 173 184 186 191 204 215 230 245 260 263 267 270 265 264 264 281 286 273 236 254 277 284 285 277 274 281 286
163 173 182 179 173 174 178 180 174 163 165 175 184 189 190 201 217 233 239 247 261 267 271 266 252 246 255 268 276 278 261 256 266 277 284 285 282 288
179 179 178 176 173 174 177 181 185 186 184 186 192 197 200 204 223 235 242 248 260 265 265 265 258 268 267 273 280 281 278 266 264 267 277 287 293 293
153 164 166 165 175 180 179 180 185 192 192 198 201 207 215 219 226 232 237 244 254 263 272 276 275 271 255 258 271 281 290 294 288 279 269 261 266 273
97 153 159 163 170 180 185 194 200 206 210 210 213 220 225 234 238 237 241 245 252 262 270 275 279 272 265 260 268 279 285 293 300 302 289 280 277 279
Height
1532 1534 1536 1538 1540 1542 1544 1546 1547 1547 1548 1549 1550 1551 1551 1552 1552 1553 1553 1553 1553 1553 1553 1553 1552 1552 1551 1551 1550 1550 1549 1548 1548 1547 1546 1545 1544 1543
1528 1530 1532 1534 1536 1538 1540 1542 1543 1544 1544 1545 1546 1547 1548 1549 1549 1549 1549 1550 1549 1549 1549 1549 1549 1548 1548 1547 1547 1546 1545 1545 1544 1543 1542 1541 1539 1538
1524 1526 1528 1530 1532 1534 1536 1538 1539 1541 1541 1541 1543 1544 1544 1545 1545 1546 1546 1546 1546 1546 1545 1545 1545 1544 1544 1543 1543 1542 1541 1540 1539 1538 1537 1536 1535 1534
1519 1522 1524 1526 1528 1530 1531 1533 1535 1536 1537 1537 1538 1539 1540 1541 1541 1542 1542 1542 1542 1542 1542 1541 1541 1540 1540 1539 1538 1538 1537 1536 1535 1534 1533 1531 1530 1529
1515 1517 1519 1521 1523 1525 1527 1528 1530 1531 1533 1533 1533 1535 1536 1537 1537 1537 1538 1538 1538 1538 1537 1537 1537 1536 1536 1535 1534 1533 1532 1531 1530 1529 1528 1526 1525 1523
1510 1512 1514 1516 1518 1520 1522 1523 1525 1526 1528 1529 1529 1530 1531 1532 1532 1533 1533 1533 1534 1534 1533 1533 1532 1532 1531 1530 1530 1529 1527 1526 1525 1524 1523 1521 1520 1518
1506 1508 1510 1512 1513 1515 1517 1518 1520 1521 1523 1523 1524 1525 1526 1527 1527 1528 1528 1529 1528 1529 1528 1528 1527 1527 1526 1525 1524 1523 1523 1521 1520 1519 1518 1516 1515 1513
1501 1503 1505 1507 1509 1511 1512 1514 1516 1517 1517 1518 1519 1520 1521 1522 1523 1523 1524 1523 1523 1524 1524 1523 1523 1522 1521 1520 1519 1518 1517 1516 1515 1514 1512 1511 1509 1508
1496 1498 1500 1502 1504 1506 1507 1509 1510 1512 1513 1514 1515 1515 1516 1517 1518 1519 1519 1519 1518 1519 1518 1517 1517 1516 1516 1515 1514 1513 1512 1511 1510 1509 1507 1505 1504 1502
1491 1493 1495 1497 1499 1501 1503 1504 1505 1507 1508 1509 1510 1511 1512 1513 1514 1514 1514 1514 1514 1513 1513 1512 1511 1511 1511 1510 1509 1508 1507 1506 1504 1503 1501 1500 1498 1497
1486 1489 1491 1492 1495 1496 1498 1499 1500 1502 1504 1505 1506 1507 1508 1508 1509 1509 1509 1509 1508 1508 1508 1508 1506 1505 1504 1504 1504 1503 1502 1501 1499 1498 1496 1494 1493 1491
1481 1484 1486 1488 1490 1491 1493 1494 1495 1497 1498 1499 1501 1502 1503 1503 1504 1504 1504 1504 1503 1503 1503 1503 1501 1500 1498 1497 1498 1498 1496 1495 1494 1492 1490 1489 1487 1485
1476 1478 1481 1483 1485 1487 1488 1490 1491 1493 1494 1495 1496 1497 1497 1498 1499 1499 1500 1500 1499 1498 1498 1498 1497 1496 1495 1492 1491 1492 1491 1489 1488 1486 1485 1483 1481 1479
1472 1474 1476 1478 1480 1482 1484 1485 1487 1488 1489 1490 1491 1492 1493 1493 1494 1494 1494 1494 1494 1494 1493 1493 1492 1491 1490 1487 1486 1485 1485 1484 1482 1480 1479 1477 1476 1474
1468 1470 1472 1474 1476 1477 1479 1480 1482 1483 1484 1485 1485 1487 1488 1489 1489 1489 1489 1489 1489 1489 1488 1488 1487 1486 1485 1483 1481 1479 1478 1477 1477 1475 1473 1471 1469 1467
1464 1466 1468 1470 1471 1473 1474 1476 1477 1478 1479 1480 1481 1482 1483 1484 1484 1484 1484 1484 1484 1484 1484 1483 1482 1481 1480 1478 1477 1475 1474 1472 1470 1469 1467 1465 1464 1462
1460 1461 1463 1465 1466 1468 1469 1471 1472 1474 1475 1476 1477 1477 1478 1479 1479 1479 1480 1479 1479 1478 1478 1478 1477 1476 1475 1474 1472 1470 1468 1467 1465 1464 1461 1459 1458 1456
1456 1457 1459 1460 1462 1463 1465 1466 1468 1469 1470 1471 1472 1473 1473 1474 1474 1475 1475 1475 1474 1474 1473 1473 1472 1471 1469 1468 1468 1465 1463 1461 1460 1458 1456 1453 1450 1450
1452 1453 1455 1457 1458 1460 1461 1462 1464 1465 1466 1467 1468 1469 1469 1470 1470 1470 1470 1470 1469 1469 1469 1468 1467 1466 1464 1462 1460 1461 1459 1456 1454 1452 1451 1448 1445 1443
1448 1450 1451 1453 1454 1455 1457 1458 1460 1461 1462 1463 1464 1464 1465 1465 1465 1465 1465 1465 1465 1464 1464 1463 1463 1462 1460 1459 1455 1454 1454 1452 1449 1447 1445 1443 1440 1438
1445 1447 1448 1449 1450 1452 1453 1454 1456 1457 1457 1458 1459 1459 1460 1460 1461 1461 1461 1460 1460 1459 1458 1458 1458 1457 1456 1454 1451 1448 1448 1447 1445 1443 1440 1437 1434 1431
1443 1444 1445 1446 1447 1448 1449 1450 1451 1452 1453 1454 1454 1455 1455 1456 1456 1456 1456 1456 1455 1455 1454 1453 1453 1452 1451 1449 1446 1444 1441 1441 1440 1438 1436 1434 1431 1426
1440 1441 1442 1443 1444 1445 1446 1446 1447 1448 1449 1449 1450 1450 1451 1451 1451 1451 1451 1451 1451 1450 1449 1448 1447 1447 1445 1444 1442 1439 1437 1435 1433 1431 1430 1429 1427 1423